默认 日期 大小 文件数 浏览量 最新下载 xml
♀100磁力链接相关资源由用户搜索指令自动获取,结果来源于网络,本站不存储任何资料,亦不承担任何责任,请于24小时内删除,搜索到112459个磁力,显示前4000条数据,用时10ms。
    ... の天然少女100%味わいま ...
创建时间: 2018-11-04 22:59:11 大小:1.12 GB 文件数量:12 热度:137 最近下载:2025-08-03 22:43:07
    {"the.100.312.hdtv-lol[ettv].mkv": 316123217, "Torrent-Downloaded-from-ExtraTorrent.cc.txt": 168}
创建时间: 2018-11-04 23:00:00 大小:301.48 MB 文件数量:2 热度:12 最近下载:2025-08-17 15:44:02
    ... ": {"001. - Бородино - 1812.pdf": 17641445, "100 битв, которые изменили мир. Описание ... . - Гуз-Грин - 1982.pdf": 20818280, "100. - Лепанто - 1571 .pdf": 27469291, "004 ...
创建时间: 2018-11-04 23:01:24 大小:2.89 GB 文件数量:120 热度:10 最近下载:2023-04-08 14:30:05
    {"100 Amateur Facials": {"2006.jpg": 40625, " ...
创建时间: 2018-11-04 23:01:50 大小:8.82 MB 文件数量:102 热度:25 最近下载:2025-04-04 17:19:02
    {"Thumbs.db": 7168, "SCD-001.jpg": 130735, "CANTONA@38.100.22.210 bbss@我和爷爷的故事.rmvb": 535548572}
创建时间: 2018-11-04 23:03:49 大小:510.87 MB 文件数量:3 热度:149 最近下载:2025-09-12 16:29:21
    ... - Позови (Radio Edit).mp3": 8153205, "100. Ost Up (Остап) - Конец романа ...
创建时间: 2018-11-04 23:05:20 大小:874.36 MB 文件数量:100 热度:9 最近下载:2023-04-08 14:40:05
    ... mkv": 376741776, "[DeadLine] Mob Psycho 100 - 02 [Soer & MezIdA] ... mkv": 376849626, "[DeadLine] Mob Psycho 100 - 03 [Soer & MezIdA] ... ": 376305958, "[DeadLine] Mob Psycho 100 - 04 [Soer & MezIdA] ... ": 376965167, "[DeadLine] Mob Psycho 100 - 05 [Soer & MezIdA] ...
创建时间: 2018-11-04 23:05:59 大小:4.21 GB 文件数量:12 热度:16 最近下载:2025-04-05 14:15:01
    {"VAL...Music..News..Cpturbo.txt": 48, "The.100.S05E02.1080p.WEB-DL.DD5.1.H264-NOGRP-DUAL-iZARDs.mkv": 1847970207, "The.100.S05E02.1080p.WEB-DL.DD5.1.H264-NOGRP-DUAL-iZARDs.srt": 40574}
创建时间: 2018-11-04 23:06:20 大小:1.72 GB 文件数量:3 热度:30 最近下载:2025-09-22 04:53:01
    {"1.JPG": 50218, "2.jpg": 285170, "3.jpg": 134889, "4.jpg": 101979, "5.jpg": 99207, "6.jpg": 52216, "avatar1981@38.100.22.156@[SOD-NH]���� 01.txt": 0, "avatar1981@38.100.22.156@[SOD-NH]���� 01.rmvb": 491813776}
创建时间: 2018-11-04 23:06:48 大小:469.72 MB 文件数量:8 热度:32 最近下载:2025-08-02 10:57:03
    ... - Project301 (Original Mix).mp3": 16517060, "100. Miguel Bastida - Avount feat Matt ...
创建时间: 2018-11-04 23:07:09 大小:1.63 GB 文件数量:100 热度:12 最近下载:2023-04-08 14:50:03
    ... .rx2": 59752, "gtr 12 lick 100 bpm.rx2": 53932, "gtr 5 ... .rx2": 260826, "Phat 4 A 100.rx2": 231418, "Phat 4 B ... 100.rx2": 250986, "Phat 8 96bpm. ...
创建时间: 2018-11-04 23:08:34 大小:11.17 GB 文件数量:16222 热度:20 最近下载:2025-08-03 09:24:06
    ... , "Best Berliner Philharmoniker - Best 100 - CD 1.log": 17520, ... , "Best Berliner Philharmoniker - Best 100 - CD 2.log": 15772, ... , "Best Berliner Philharmoniker - Best 100 - CD 3.log": 16830, ... , "Best Berliner Philharmoniker - Best 100 - CD 4.log": 16916, ...
创建时间: 2018-11-04 23:08:48 大小:1.77 GB 文件数量:126 热度:22 最近下载:2025-04-05 08:06:01
    ... .mkv": 1177116720, "The.100.s05e02.WEB-DL.720p.Rus ... .mkv": 1187262604, "The.100.s05e03.WEB-DL.720p.Rus ... .mkv": 1166346365, "The.100.s05e04.WEB-DL.720p.Rus ... .mkv": 1168729330, "The.100.s05e05.WEB-DL.720p.Rus ... .mkv": 1173624756, "The.100.s05e06.WEB-DL.720p.Rus ...
创建时间: 2018-11-04 23:10:51 大小:8.76 GB 文件数量:8 热度:11 最近下载:2023-04-08 15:00:15
    ... Cooper - Poison.flac": 30125194, "100 Hits Power Ballads (CD1).cue ... Under.flac": 26128090, "CD1 100 Hits Power Ballads.accurip": ... Soldiers.flac": 30137689, "CD2 100 Hits Power Ballads.accurip": ... New Orleans.flac": 18010565, "100 Hits Power Ballads (CD5).cue ...
创建时间: 2018-11-04 23:11:29 大小:2.64 GB 文件数量:130 热度:9 最近下载:2023-04-08 15:00:19
    ... Uncensored Version).mp3": 5383478, "100 - Box Tops - 100 - Box Tops - Sweet Cream ...
创建时间: 2018-11-04 23:12:15 大小:265.25 MB 文件数量:88 热度:13 最近下载:2025-09-22 05:19:02
    {"CD1": {"13. Peggy Lee - Fever.mp3": 8055761, "06. Dion - The Wanderer.mp3": 6735014, "20. Frankie Avalon - Venus.mp3": 5700571, "18. Paul & Paula - Hey Paula.mp3": 6070468, "07. Brenda Lee - Sweet Nothin's.mp3": 5766409, "17. Barry Mann - Who Put The ...
创建时间: 2018-11-04 23:12:35 大小:577.62 MB 文件数量:100 热度:12 最近下载:2023-04-08 15:00:15
    {"Tech": {"level.jpg": 756057, "spectrum.jpg": 1552152, "frequency.jpg": 490792}, "Front cover.jpg": 13154174, "Modern Talking - In 100 Years... 45Maxi-Single.cue": 461, "Modern Talking - In 100 Years... 45Maxi-Single.flac": 346670017}
创建时间: 2018-11-04 23:14:15 大小:345.82 MB 文件数量:6 热度:9 最近下载:2023-04-08 15:10:05
    ... - Fly Away (1998).mp3": 5316736, "100 - Lit - My Own Worst Enemy ...
创建时间: 2018-11-04 23:14:58 大小:622.55 MB 文件数量:108 热度:13 最近下载:2025-02-13 14:01:51
    {"Subs": {"2_Eng.srt": 41781}, "RARBG.txt": 30, "The.100.S05E13.WEBRip.x264-ION10.mp4": 423692519}
创建时间: 2018-11-04 23:23:57 大小:404.1 MB 文件数量:3 热度:10 最近下载:2025-09-22 05:03:16
    {"005. Zz Top - Legs.mp3": 11037089, "017. Kiss - Shock Me.mp3": 9234701, "046. Hey - Teksańsk.mp3": 6494258, "059. Van Halen - Jump.mp3": 9864781, "071. Awaken - Inertia.mp3": 9924399, "006. UDO - Metal Eater.mp3": 8959840, "013. Slash - Anastasia.mp3": ...
创建时间: 2018-11-04 23:24:15 大小:945.97 MB 文件数量:100 热度:10 最近下载:2023-04-08 15:30:02